Time,TemperatureF,DewpointF,PressureIn,WindDirection,WindDirectionDegrees,WindSpeedMPH,WindSpeedGustMPH,Humidity,HourlyPrecipIn,Conditions,Clouds,dailyrainin,SolarRadiationWatts/m^2,SoftwareType,DateUTC
2014-04-20 00:01:00,45.1,30.8,30.44,South,191,0.0,0.0,57,0.00,,FEW,0.00,0.0,WeatherDisplay:10.37,2014-04-20 04:01:00,
2014-04-20 00:02:00,45.1,30.8,30.44,South,191,0.0,0.0,57,0.00,,FEW,0.00,0.0,WeatherDisplay:10.37,2014-04-20 04:02:00,
2014-04-20 00:03:00,45.0,30.7,30.44,South,191,0.0,0.0,57,0.00,,FEW,0.00,0.0,WeatherDisplay:10.37,2014-04-20 04:03:00,
2014-04-20 00:08:00,45.0,30.7,30.44,South,191,0.0,0.0,57,0.00,,FEW,0.00,0.0,WeatherDisplay:10.37,2014-04-20 04:08:00,
2014-04-20 00:13:00,44.9,31.0,30.44,South,191,0.0,0.0,58,0.00,,FEW,0.00,0.0,WeatherDisplay:10.37,2014-04-20 04:13:00,
2014-04-20 00:18:00,44.8,30.9,30.44,South,191,0.0,0.0,58,0.00,,FEW,0.00,0.0,WeatherDisplay:10.37,2014-04-20 04:18:00,
2014-04-20 00:23:00,44.7,30.9,30.44,South,191,0.0,0.0,58,0.00,,FEW,0.00,0.0,WeatherDisplay:10.37,2014-04-20 04:23:00,
2014-04-20 00:28:00,44.6,30.8,30.44,South,191,0.0,0.0,58,0.00,,FEW,0.00,0.0,WeatherDisplay:10.37,2014-04-20 04:28:00,
2014-04-20 00:33:00,44.5,31.1,30.44,South,191,0.0,0.0,59,0.00,,FEW,0.00,0.0,WeatherDisplay:10.37,2014-04-20 04:33:00,
2014-04-20 00:38:00,44.4,31.0,30.44,South,191,0.0,0.0,59,0.00,,FEW,0.00,0.0,WeatherDisplay:10.37,2014-04-20 04:38:00,
2014-04-20 00:43:00,44.4,31.0,30.45,South,191,0.0,0.0,59,0.00,,FEW,0.00,0.0,WeatherDisplay:10.37,2014-04-20 04:43:00,
2014-04-20 00:48:00,44.3,31.3,30.45,South,191,0.0,0.0,60,0.00,,FEW,0.00,0.0,WeatherDisplay:10.37,2014-04-20 04:48:00,
2014-04-20 00:53:00,44.2,31.2,30.44,South,191,0.0,0.0,60,0.00,,FEW,0.00,0.0,WeatherDisplay:10.37,2014-04-20 04:53:00,
2014-04-20 00:58:00,44.2,31.2,30.44,South,191,0.0,0.0,60,0.00,,FEW,0.00,0.0,WeatherDisplay:10.37,2014-04-20 04:58:00,
2014-04-20 01:03:00,44.2,31.6,30.44,South,191,0.0,0.0,61,0.00,,FEW,0.00,0.0,WeatherDisplay:10.37,2014-04-20 05:03:00,
2014-04-20 01:08:00,44.2,31.6,30.44,South,191,0.0,0.0,61,0.00,,FEW,0.00,0.0,WeatherDisplay:10.37,2014-04-20 05:08:00,
2014-04-20 01:13:00,44.2,31.2,30.44,South,191,0.0,0.0,60,0.00,,FEW,0.00,0.0,WeatherDisplay:10.37,2014-04-20 05:13:00,
2014-04-20 01:18:00,44.1,31.5,30.44,South,191,0.0,0.0,61,0.00,,FEW,0.00,0.0,WeatherDisplay:10.37,2014-04-20 05:18:00,
2014-04-20 01:23:00,44.1,31.1,30.44,South,191,0.0,0.0,60,0.00,,FEW,0.00,0.0,WeatherDisplay:10.37,2014-04-20 05:23:00,
2014-04-20 01:28:00,44.1,31.1,30.44,South,191,0.0,0.0,60,0.00,,FEW,0.00,0.0,WeatherDisplay:10.37,2014-04-20 05:28:00,
2014-04-20 01:33:00,44.0,31.0,30.44,South,191,0.0,0.0,60,0.00,,FEW,0.00,0.0,WeatherDisplay:10.37,2014-04-20 05:33:00,
2014-04-20 01:38:00,43.9,31.3,30.44,South,191,0.0,0.0,61,0.00,,FEW,0.00,0.0,WeatherDisplay:10.37,2014-04-20 05:38:00,
2014-04-20 01:43:00,43.9,31.3,30.44,South,191,0.0,0.0,61,0.00,,FEW,0.00,0.0,WeatherDisplay:10.37,2014-04-20 05:43:00,
2014-04-20 01:48:00,43.9,31.3,30.44,South,191,0.0,0.0,61,0.00,,FEW,0.00,0.0,WeatherDisplay:10.37,2014-04-20 05:48:00,
2014-04-20 01:53:00,43.8,31.3,30.44,South,191,0.0,0.0,61,0.00,,FEW,0.00,0.0,WeatherDisplay:10.37,2014-04-20 05:53:00,
2014-04-20 01:58:00,43.7,31.2,30.44,South,191,0.0,0.0,61,0.00,,FEW,0.00,0.0,WeatherDisplay:10.37,2014-04-20 05:58:00,
2014-04-20 02:03:00,43.6,31.1,30.44,South,191,0.0,0.0,61,0.00,,FEW,0.00,0.0,WeatherDisplay:10.37,2014-04-20 06:03:00,
2014-04-20 02:08:00,43.5,30.6,30.44,South,191,0.0,0.0,60,0.00,,FEW,0.00,0.0,WeatherDisplay:10.37,2014-04-20 06:08:00,
2014-04-20 02:13:00,43.4,30.9,30.44,South,191,0.0,0.0,61,0.00,,FEW,0.00,0.0,WeatherDisplay:10.37,2014-04-20 06:13:00,
2014-04-20 02:18:00,43.3,30.8,30.44,South,191,0.0,0.0,61,0.00,,FEW,0.00,0.0,WeatherDisplay:10.37,2014-04-20 06:18:00,
2014-04-20 02:23:00,43.3,30.8,30.44,South,191,0.0,0.0,61,0.00,,FEW,0.00,0.0,WeatherDisplay:10.37,2014-04-20 06:23:00,
2014-04-20 02:28:00,43.4,30.9,30.44,South,191,0.0,0.0,61,0.00,,FEW,0.00,0.0,WeatherDisplay:10.37,2014-04-20 06:28:00,
2014-04-20 02:33:00,43.3,30.8,30.43,South,191,0.0,0.0,61,0.00,,FEW,0.00,0.0,WeatherDisplay:10.37,2014-04-20 06:33:00,
2014-04-20 02:38:00,43.2,30.7,30.43,South,191,0.0,0.0,61,0.00,,FEW,0.00,0.0,WeatherDisplay:10.37,2014-04-20 06:38:00,
2014-04-20 02:48:00,42.9,30.4,30.43,South,191,0.0,0.0,61,0.00,,FEW,0.00,0.0,WeatherDisplay:10.37,2014-04-20 06:48:00,
2014-04-20 02:53:00,42.8,30.7,30.43,South,191,0.0,0.0,62,0.00,,FEW,0.00,0.0,WeatherDisplay:10.37,2014-04-20 06:53:00,
2014-04-20 02:58:00,42.7,30.6,30.43,South,191,0.0,0.0,62,0.00,,FEW,0.00,0.0,WeatherDisplay:10.37,2014-04-20 06:58:00,
2014-04-20 03:03:00,42.7,30.6,30.44,South,191,0.0,0.0,62,0.00,,FEW,0.00,0.0,WeatherDisplay:10.37,2014-04-20 07:03:00,
2014-04-20 03:08:00,42.7,30.6,30.44,South,191,0.0,0.0,62,0.00,,FEW,0.00,0.0,WeatherDisplay:10.37,2014-04-20 07:08:00,
2014-04-20 03:13:00,42.6,30.5,30.44,South,191,0.0,0.0,62,0.00,,FEW,0.00,0.0,WeatherDisplay:10.37,2014-04-20 07:13:00,
2014-04-20 03:18:00,42.5,30.4,30.44,South,191,0.0,0.0,62,0.00,,FEW,0.00,0.0,WeatherDisplay:10.37,2014-04-20 07:18:00,
2014-04-20 03:23:00,42.4,30.3,30.44,South,191,0.0,0.0,62,0.00,,FEW,0.00,0.0,WeatherDisplay:10.37,2014-04-20 07:23:00,
2014-04-20 03:28:00,42.3,30.2,30.44,South,191,0.0,0.0,62,0.00,,FEW,0.00,0.0,WeatherDisplay:10.37,2014-04-20 07:28:00,
2014-04-20 03:33:00,42.3,30.6,30.43,South,191,0.0,0.0,63,0.00,,FEW,0.00,0.0,WeatherDisplay:10.37,2014-04-20 07:33:00,
2014-04-20 03:38:00,42.2,30.5,30.43,South,191,0.0,0.0,63,0.00,,FEW,0.00,0.0,WeatherDisplay:10.37,2014-04-20 07:38:00,
2014-04-20 03:43:00,42.2,30.5,30.43,South,191,0.0,0.0,63,0.00,,FEW,0.00,0.0,WeatherDisplay:10.37,2014-04-20 07:43:00,
2014-04-20 03:48:00,42.0,30.3,30.43,South,191,0.0,0.0,63,0.00,,FEW,0.00,0.0,WeatherDisplay:10.37,2014-04-20 07:48:00,
2014-04-20 03:53:00,41.9,30.3,30.43,South,191,0.0,0.0,63,0.00,,FEW,0.00,0.0,WeatherDisplay:10.37,2014-04-20 07:53:00,
2014-04-20 03:58:00,41.8,30.2,30.43,South,191,0.0,0.0,63,0.00,,FEW,0.00,0.0,WeatherDisplay:10.37,2014-04-20 07:58:00,
2014-04-20 04:03:00,41.8,30.2,30.43,South,191,1.0,1.0,63,0.00,,FEW,0.00,0.0,WeatherDisplay:10.37,2014-04-20 08:03:00,
2014-04-20 04:08:00,41.8,30.2,30.43,South,191,0.0,0.0,63,0.00,,FEW,0.00,0.0,WeatherDisplay:10.37,2014-04-20 08:08:00,
2014-04-20 04:13:00,41.6,30.4,30.43,South,191,0.0,0.0,64,0.00,,FEW,0.00,0.0,WeatherDisplay:10.37,2014-04-20 08:13:00,
2014-04-20 04:18:00,41.5,30.3,30.43,South,191,0.0,0.0,64,0.00,,FEW,0.00,0.0,WeatherDisplay:10.37,2014-04-20 08:18:00,
2014-04-20 04:23:00,41.4,30.2,30.43,South,191,0.0,0.0,64,0.00,,FEW,0.00,0.0,WeatherDisplay:10.37,2014-04-20 08:23:00,
2014-04-20 04:29:00,41.4,30.5,30.42,South,191,0.0,0.0,65,0.00,,FEW,0.00,0.0,WeatherDisplay:10.37,2014-04-20 08:29:00,
2014-04-20 04:34:00,41.3,30.5,30.42,South,191,0.0,0.0,65,0.00,,FEW,0.00,0.0,WeatherDisplay:10.37,2014-04-20 08:34:00,
2014-04-20 04:39:00,41.2,30.4,30.43,South,191,0.0,0.0,65,0.00,,FEW,0.00,0.0,WeatherDisplay:10.37,2014-04-20 08:39:00,
2014-04-20 04:44:00,41.2,30.4,30.43,South,191,1.0,0.0,65,0.00,,FEW,0.00,0.0,WeatherDisplay:10.37,2014-04-20 08:44:00,
2014-04-20 04:49:00,41.3,30.5,30.43,South,191,0.0,0.0,65,0.00,,FEW,0.00,0.0,WeatherDisplay:10.37,2014-04-20 08:49:00,
2014-04-20 04:54:00,41.2,30.4,30.43,South,191,1.2,1.2,65,0.00,,FEW,0.00,0.0,WeatherDisplay:10.37,2014-04-20 08:54:00,
2014-04-20 04:59:00,41.2,30.7,30.43,South,191,1.2,1.2,66,0.00,,FEW,0.00,0.0,WeatherDisplay:10.37,2014-04-20 08:59:00,
2014-04-20 05:04:00,41.2,30.7,30.43,South,191,0.0,0.0,66,0.00,,FEW,0.00,0.0,WeatherDisplay:10.37,2014-04-20 09:04:00,
2014-04-20 05:09:00,41.0,30.5,30.43,South,191,0.0,0.0,66,0.00,,FEW,0.00,0.0,WeatherDisplay:10.37,2014-04-20 09:09:00,
2014-04-20 05:14:00,40.9,30.4,30.42,South,191,0.0,0.0,66,0.00,,FEW,0.00,0.0,WeatherDisplay:10.37,2014-04-20 09:14:00,
2014-04-20 05:19:00,40.8,30.4,30.42,South,191,0.0,0.0,66,0.00,,FEW,0.00,0.0,WeatherDisplay:10.37,2014-04-20 09:19:00,
2014-04-20 05:24:00,40.7,30.6,30.42,South,191,1.2,0.0,67,0.00,,FEW,0.00,0.0,WeatherDisplay:10.37,2014-04-20 09:24:00,
2014-04-20 05:29:00,40.6,30.5,30.42,South,191,1.0,1.0,67,0.00,,FEW,0.00,0.0,WeatherDisplay:10.37,2014-04-20 09:29:00,
2014-04-20 05:34:00,40.5,30.4,30.42,South,191,0.0,0.0,67,0.00,,FEW,0.00,0.0,WeatherDisplay:10.37,2014-04-20 09:34:00,
2014-04-20 05:39:00,40.4,30.7,30.42,South,191,0.0,0.0,68,0.00,,FEW,0.00,0.0,WeatherDisplay:10.37,2014-04-20 09:39:00,
2014-04-20 05:44:00,40.4,30.7,30.42,South,191,0.0,0.0,68,0.00,,FEW,0.00,0.0,WeatherDisplay:10.37,2014-04-20 09:44:00,
2014-04-20 05:49:00,40.3,30.6,30.42,South,191,0.0,0.0,68,0.00,,FEW,0.00,0.0,WeatherDisplay:10.37,2014-04-20 09:49:00,
2014-04-20 05:54:00,40.2,30.9,30.42,South,191,1.2,0.0,69,0.00,,FEW,0.00,0.0,WeatherDisplay:10.37,2014-04-20 09:54:00,
2014-04-20 05:59:00,40.0,30.7,30.42,South,191,1.0,1.0,69,0.00,,FEW,0.00,0.0,WeatherDisplay:10.37,2014-04-20 09:59:00,
2014-04-20 06:04:00,40.0,30.7,30.42,South,191,0.0,0.1,69,0.00,,FEW,0.00,0.0,WeatherDisplay:10.37,2014-04-20 10:04:00,
2014-04-20 06:09:00,40.1,31.1,30.42,South,191,0.0,0.0,70,0.00,,FEW,0.00,0.0,WeatherDisplay:10.37,2014-04-20 10:09:00,
2014-04-20 06:14:00,40.2,31.2,30.42,South,191,0.0,0.0,70,0.00,,FEW,0.00,0.0,WeatherDisplay:10.37,2014-04-20 10:14:00,
2014-04-20 06:19:00,40.4,31.4,30.42,South,191,0.0,0.0,70,0.00,,FEW,0.00,0.0,WeatherDisplay:10.37,2014-04-20 10:19:00,
2014-04-20 06:24:00,40.4,31.4,30.42,South,191,0.0,0.0,70,0.00,,FEW,0.00,0.0,WeatherDisplay:10.37,2014-04-20 10:24:00,
2014-04-20 06:29:00,40.3,31.3,30.42,South,191,1.2,0.0,70,0.00,,FEW,0.00,0.0,WeatherDisplay:10.37,2014-04-20 10:29:00,
2014-04-20 06:34:00,40.2,31.2,30.42,South,191,0.0,0.0,70,0.00,,FEW,0.00,0.0,WeatherDisplay:10.37,2014-04-20 10:34:00,
2014-04-20 06:39:00,40.1,31.1,30.42,South,191,1.2,0.0,70,0.00,,FEW,0.00,7.0,WeatherDisplay:10.37,2014-04-20 10:39:00,
2014-04-20 06:44:00,40.2,31.2,30.43,South,191,1.0,0.0,70,0.00,,FEW,0.00,9.0,WeatherDisplay:10.37,2014-04-20 10:44:00,
2014-04-20 06:47:00,40.2,31.2,30.43,South,191,2.3,0.0,70,0.00,,FEW,0.00,9.0,WeatherDisplay:10.37,2014-04-20 10:47:00,
2014-04-20 06:52:00,40.3,31.3,30.42,South,191,0.0,0.0,70,0.00,,FEW,0.00,11.0,WeatherDisplay:10.37,2014-04-20 10:52:00,
2014-04-20 06:57:00,40.3,31.3,30.42,South,191,1.2,1.2,70,0.00,,FEW,0.00,12.0,WeatherDisplay:10.37,2014-04-20 10:57:00,
2014-04-20 07:02:00,40.3,31.3,30.42,South,191,0.0,0.0,70,0.00,,FEW,0.00,16.0,WeatherDisplay:10.37,2014-04-20 11:02:00,
2014-04-20 07:07:00,40.4,31.4,30.42,South,191,0.0,0.0,70,0.00,,FEW,0.00,19.0,WeatherDisplay:10.37,2014-04-20 11:07:00,
2014-04-20 07:12:00,40.5,31.5,30.42,South,191,0.0,0.0,70,0.00,,FEW,0.00,23.0,WeatherDisplay:10.37,2014-04-20 11:12:00,
2014-04-20 07:17:00,40.7,31.7,30.42,South,191,0.0,0.0,70,0.00,,FEW,0.00,26.0,WeatherDisplay:10.37,2014-04-20 11:17:00,
2014-04-20 07:22:00,40.9,31.9,30.42,South,191,0.0,0.0,70,0.00,,FEW,0.00,28.0,WeatherDisplay:10.37,2014-04-20 11:22:00,
2014-04-20 07:27:00,41.1,31.7,30.42,South,191,0.0,0.0,69,0.00,,FEW,0.00,33.0,WeatherDisplay:10.37,2014-04-20 11:27:00,
2014-04-20 07:32:00,41.3,31.9,30.42,South,191,0.0,0.0,69,0.00,,FEW,0.00,35.0,WeatherDisplay:10.37,2014-04-20 11:32:00,
2014-04-20 07:37:00,41.5,31.8,30.42,South,191,0.0,0.0,68,0.00,,FEW,0.00,35.0,WeatherDisplay:10.37,2014-04-20 11:37:00,
2014-04-20 07:42:00,41.8,31.7,30.42,South,191,0.0,0.0,67,0.00,,FEW,0.00,37.0,WeatherDisplay:10.37,2014-04-20 11:42:00,